Dewpoint
13 13 12 11 5 -3 -5 -5 -4 -13 -9 2 8 8 9 10 11 11 11 11 11 10 11 10 10 11 10 10 9 8 9 10 10
12 13 12 11 10 9 -2 -7 -9 -12 -1 7 8 8 10 11 12 11 10 10 11 10 10 10 11 10 10 10 10 9 9 10 9
12 12 11 11 10 8 -1 -6 -7 -6 5 7 9 10 9 11 11 11 11 11 10 11 11 11 10 10 9 10 9 9 10 9 9
9 10 11 10 10 6 -3 -4 -1 7 6 10 9 9 9 9 9 10 9 9 11 11 11 10 10 10 10 9 9 9 8 9 8
9 10 10 9 9 2 8 6 5 7 9 9 9 9 9 9 9 9 8 9 10 10 10 10 9 10 9 9 8 8 8 8 8
10 11 10 9 8 6 10 10 6 8 9 9 9 9 9 8 9 9 9 9 9 9 9 9 9 9 9 8 8 8 8 7 8
8 9 9 9 8 8 9 9 7 9 9 9 9 8 9 8 8 9 8 9 9 9 9 9 8 8 9 8 8 8 4 6 6
8 8 9 9 8 10 9 7 8 10 9 9 8 8 7 8 8 8 8 8 8 8 8 8 6 8 8 8 7 5 6 -5 -8
8 8 8 8 8 9 8 7 7 9 9 8 8 7 7 7 7 8 8 8 8 8 8 8 7 8 8 8 5 4 -7 -8 -9
8 8 8 8 9 5 9 7 7 7 8 8 8 8 7 7 7 8 8 7 8 7 8 8 8 8 8 8 5 -6 -8 -8 -10
8 8 8 8 8 8 9 7 7 7 7 6 7 8 7 7 7 6 8 8 8 8 7 8 8 7 7 7 -6 -7 -8 -8 -9
8 8 8 8 8 9 7 7 7 8 7 6 6 7 7 7 7 7 5 7 7 7 7 7 7 7 7 -1 -6 -7 -8 -8 -8
8 8 8 9 9 8 7 7 7 7 7 7 5 6 7 7 7 7 6 7 7 7 7 7 7 7 7 -4 -6 -7 -7 -7 -8
8 8 8 8 8 9 8 8 7 7 7 6 5 6 7 7 6 6 6 6 6 7 7 6 6 6 6 -2 -5 -6 -6 -7 -7
7 8 8 7 7 7 8 9 7 7 7 7 6 6 7 7 6 7 7 6 6 6 6 7 6 6 5 1 -3 -6 -6 -6 -6
7 6 7 8 7 7 7 7 7 7 7 6 7 6 6 7 7 7 6 6 6 6 6 6 6 6 6 4 -1 -4 -6 -6 -6
7 6 6 6 6 7 7 7 7 7 6 6 7 7 6 6 7 7 6 6 6 6 6 6 6 6 6 4 2 -1 -5 -6 -6
8 8 7 7 7 7 6 7 7 7 6 7 6 5 5 4 4 5 6 6 6 6 6 6 6 6 3 2 1 -1 -3 -5 -5
5 4 4 4 5 5 4 6 7 7 7 7 7 5 2 1 1 3 4 5 6 6 5 5 6 5 4 3 1 -0 -2 -4 -4
2 1 1 -0 -2 -2 -1 2 6 7 7 7 6 6 4 3 2 0 1 4 4 6 5 4 5 4 3 2 1 -1 -2 -3 -4
Wind_Speed
19 16 13 10 10 10 10 11 13 18 22 22 20 17 16 16 15 17 19 20 19 18 21 18 17 21 19 20 19 19 21 23 23
15 14 12 10 6 3 6 11 16 21 23 22 19 17 17 16 22 21 19 18 20 18 14 12 18 17 19 21 22 23 21 23 23
15 14 11 6 3 1 8 13 18 21 24 21 17 17 17 17 17 18 16 16 15 14 13 15 16 18 17 20 20 21 21 21 22
16 14 12 8 4 2 12 15 20 21 19 20 16 18 16 13 12 11 14 11 13 12 12 13 15 18 20 18 21 20 17 20 21
16 16 14 9 6 9 15 15 21 20 18 17 18 17 15 13 12 9 9 13 12 13 14 16 16 18 19 18 19 19 18 18 19
18 16 14 11 9 15 17 15 20 21 17 16 17 15 12 11 9 7 8 13 15 15 16 16 17 19 19 18 18 16 17 16 17
20 16 14 13 12 20 18 17 19 23 19 17 15 11 10 8 7 8 9 13 14 16 18 18 18 18 18 17 16 16 14 15 15
19 19 19 16 20 22 20 16 19 24 20 17 13 10 9 8 9 11 12 14 15 16 16 18 17 17 17 16 14 14 14 11 10
20 17 23 20 22 23 20 15 18 21 20 15 12 10 9 10 7 15 14 15 15 16 17 15 14 16 16 15 13 13 10 10 9
21 24 24 23 23 23 21 16 14 16 19 14 13 12 11 9 6 18 15 14 16 14 15 16 15 15 14 14 12 9 8 8 8
23 25 23 24 22 22 22 17 16 16 17 16 15 14 14 12 10 9 15 16 15 16 14 16 15 15 14 13 8 7 6 6 5
24 26 24 22 21 19 19 18 19 18 18 17 19 17 14 14 12 11 11 17 15 16 15 15 14 14 13 10 7 6 5 4 3
25 28 26 26 23 23 24 20 17 18 20 18 18 16 13 12 9 10 12 18 17 16 16 16 15 15 14 9 7 5 3 2 2
22 29 28 25 24 22 25 21 21 20 19 18 21 14 12 12 12 11 13 16 19 19 16 14 13 16 14 8 6 5 5 4 3
21 27 28 28 27 23 22 19 21 20 16 16 19 23 19 16 16 15 16 15 14 17 18 18 16 14 14 11 9 8 7 7 6
19 18 32 27 28 28 26 22 22 20 20 19 20 21 23 22 20 18 17 18 18 18 18 21 21 21 18 17 14 12 11 10 9
19 20 24 24 23 24 26 27 23 24 22 25 23 16 22 26 27 25 21 21 21 22 23 23 23 24 23 21 18 17 16 14 13
21 21 23 23 23 23 24 31 25 27 26 27 22 10 13 21 28 31 30 26 26 26 26 28 27 27 24 21 21 20 20 18 17
20 22 25 26 27 26 24 30 26 27 31 30 29 22 9 11 12 30 31 34 33 32 30 30 31 30 29 28 25 23 22 21 21
15 14 16 19 21 22 24 28 32 32 32 34 33 31 22 16 16 15 25 35 37 37 37 35 35 34 32 31 30 28 25 24 23
Wind_Direction
157 161 161 157 131 126 133 137 137 134 137 132 125 121 121 122 121 122 118 115 117 113 106 105 102 99 96 94 94 93 96 95 92
173 167 162 156 146 125 138 140 139 141 136 128 125 125 131 130 125 115 110 116 115 120 128 112 104 99 97 102 101 100 94 96 93
177 176 178 188 184 167 162 146 143 141 136 131 133 139 138 139 127 129 124 131 135 130 120 113 105 105 99 106 102 101 102 102 89
195 195 196 194 181 194 148 142 144 138 140 139 150 151 147 145 141 143 132 138 141 137 128 123 122 113 112 113 108 111 112 99 98
189 192 193 190 187 157 144 144 145 143 142 149 156 151 149 153 149 143 137 140 142 137 135 130 126 118 120 120 118 117 100 102 97
192 189 196 198 203 166 155 146 155 148 157 153 158 155 158 158 156 140 152 143 147 147 142 134 129 127 131 126 117 114 110 103 101
196 194 202 201 190 172 166 163 160 160 161 164 156 155 159 169 169 160 146 151 153 148 143 135 140 136 130 126 124 114 110 107 106
189 193 182 189 181 171 164 174 163 165 169 161 164 162 163 167 167 157 159 153 154 146 147 149 147 138 136 131 125 120 121 112 98
194 186 174 185 178 176 170 179 171 172 175 164 168 173 181 184 201 157 166 167 160 160 152 150 152 140 139 133 128 134 115 104 95
187 179 179 181 186 181 169 170 147 163 174 180 189 184 183 186 205 163 174 171 166 161 160 160 151 150 145 143 148 129 120 108 95
177 181 183 184 185 185 173 163 177 174 185 190 188 190 189 199 220 185 178 174 172 171 175 168 164 159 158 159 150 137 119 106 97
184 185 181 184 182 183 166 182 186 193 197 197 199 204 205 208 220 236 207 183 182 179 182 179 173 171 173 176 161 152 143 137 113
191 191 188 184 186 188 182 185 198 199 204 206 192 205 201 200 221 232 215 184 188 192 201 184 185 191 185 181 180 178 178 178 178
201 194 191 194 191 184 189 198 201 204 213 212 194 198 197 198 208 213 205 199 198 201 211 207 207 215 206 208 206 208 219 231 247
201 197 193 198 198 196 197 197 208 211 202 204 207 202 208 203 210 212 207 215 209 213 212 215 222 230 234 237 236 236 244 249 260
199 213 198 191 199 201 205 206 213 209 203 198 204 210 209 210 206 212 216 217 220 220 224 229 230 235 243 249 254 253 255 258 265
206 190 195 206 212 215 211 211 210 211 213 205 205 210 220 218 213 212 213 221 222 225 227 231 240 239 246 250 257 259 259 261 266
216 208 209 214 214 219 219 213 218 216 212 217 208 206 219 225 225 223 217 218 224 229 233 233 235 246 254 250 253 257 260 263 266
224 221 224 224 228 231 225 213 220 223 220 222 230 231 224 208 219 228 225 224 223 229 234 238 243 249 252 256 258 258 257 258 262
227 225 226 230 229 229 226 221 222 227 230 235 242 235 233 230 237 234 230 229 232 233 238 245 248 253 255 257 259 259 258 258 260
Height
1554 1556 1559 1561 1562 1564 1565 1566 1567 1568 1569 1570 1572 1573 1575 1576 1577 1578 1579 1580 1581 1582 1583 1583 1584 1584 1584 1584 1584 1584 1584 1585 1585
1555 1556 1559 1561 1563 1564 1565 1566 1567 1568 1570 1572 1574 1575 1576 1578 1579 1580 1581 1582 1583 1584 1585 1585 1586 1587 1586 1586 1587 1587 1587 1587 1587
1554 1556 1558 1561 1563 1564 1566 1567 1568 1569 1572 1574 1575 1576 1578 1579 1581 1582 1583 1584 1585 1585 1586 1587 1588 1588 1588 1589 1589 1589 1590 1589 1589
1554 1556 1558 1561 1563 1565 1566 1568 1569 1572 1573 1575 1576 1577 1579 1581 1581 1583 1584 1585 1586 1587 1587 1588 1589 1589 1591 1591 1591 1591 1591 1590 1590
1553 1555 1558 1561 1563 1566 1567 1569 1571 1573 1575 1576 1577 1578 1579 1582 1583 1584 1585 1586 1587 1588 1589 1589 1590 1591 1592 1592 1592 1592 1592 1591 1591
1552 1554 1557 1560 1563 1566 1568 1569 1572 1574 1575 1577 1578 1580 1581 1582 1583 1584 1585 1586 1587 1588 1589 1589 1590 1591 1592 1592 1593 1593 1592 1592 1592
1551 1554 1557 1560 1563 1566 1567 1570 1572 1573 1575 1578 1579 1581 1582 1582 1583 1585 1585 1587 1587 1588 1589 1590 1590 1591 1591 1592 1592 1593 1593 1593 1593
1551 1553 1556 1559 1562 1564 1567 1569 1572 1574 1575 1577 1580 1581 1583 1583 1582 1584 1585 1587 1588 1589 1589 1589 1590 1590 1591 1592 1592 1592 1593 1593 1593
1549 1552 1555 1558 1561 1563 1566 1569 1571 1574 1576 1578 1579 1581 1582 1582 1583 1584 1586 1586 1587 1589 1589 1590 1591 1592 1592 1593 1592 1592 1593 1593 1593
1547 1550 1553 1556 1560 1563 1566 1569 1571 1573 1576 1577 1578 1580 1581 1583 1582 1583 1584 1585 1586 1588 1589 1590 1591 1592 1592 1592 1592 1592 1593 1594 1594
1547 1549 1552 1555 1559 1563 1565 1568 1570 1573 1576 1577 1578 1579 1580 1581 1582 1584 1584 1585 1586 1587 1588 1590 1590 1591 1592 1592 1591 1592 1593 1594 1594
1545 1548 1552 1555 1558 1562 1565 1567 1569 1571 1574 1576 1577 1578 1579 1580 1581 1582 1583 1585 1586 1587 1588 1589 1590 1590 1591 1590 1591 1592 1592 1593 1593
1544 1547 1550 1553 1556 1560 1564 1566 1567 1570 1572 1574 1576 1576 1578 1579 1580 1581 1581 1583 1585 1587 1587 1588 1589 1590 1590 1589 1590 1591 1592 1593 1592
1541 1545 1548 1552 1555 1557 1561 1563 1565 1567 1570 1572 1575 1576 1576 1577 1579 1580 1580 1582 1583 1585 1586 1588 1588 1589 1589 1589 1590 1590 1590 1591 1591
1539 1542 1546 1549 1553 1556 1558 1561 1563 1565 1568 1570 1572 1574 1575 1576 1577 1578 1579 1580 1581 1582 1584 1586 1586 1586 1587 1588 1588 1588 1589 1589 1589
1538 1541 1543 1546 1549 1552 1556 1559 1561 1563 1565 1567 1569 1570 1572 1573 1574 1575 1576 1578 1579 1580 1582 1582 1583 1584 1584 1585 1586 1586 1586 1587 1587
1537 1539 1542 1545 1548 1550 1553 1556 1557 1560 1562 1564 1566 1567 1569 1569 1570 1571 1573 1574 1575 1577 1578 1579 1579 1579 1580 1581 1582 1582 1582 1583 1583
1534 1537 1540 1543 1544 1547 1549 1552 1554 1556 1559 1560 1562 1563 1562 1563 1565 1566 1569 1570 1571 1572 1573 1574 1574 1574 1575 1576 1577 1579 1580 1580 1580
1533 1534 1536 1539 1541 1542 1545 1548 1550 1552 1555 1557 1558 1558 1558 1558 1559 1560 1562 1564 1565 1566 1567 1569 1569 1570 1571 1572 1572 1573 1575 1576 1576
1530 1531 1533 1535 1536 1538 1540 1543 1545 1547 1550 1551 1553 1554 1555 1555 1555 1554 1555 1557 1559 1561 1562 1563 1563 1564 1566 1567 1567 1568 1569 1571 1572